Location: Grand Lay
(47.3253°N, 0.9468°E)
Time: 15:14:58
(UTC+00:00)

ATLAS 2AS CENTAUR R/B - Pass Details

Date: 18 January 2026
Orbit: 1050 x 1161 km, 63.7° (Epoch: 10 February)

Event Time Altitude Azimuth Distance (km) Brightness Sun altitude
Exits shadow 06:51:35 - 306° (NW) 3,044 4.5 -7.7°
Reaches altitude 10° 06:52:09 10° 304° (NW) 2,871 4.3 -7.6°
Maximum altitude 06:57:46 29° 247° (WSW) 1,824 3.6 -6.7°
Drops below altitude 10° 07:03:23 10° 190° (S) 2,868 5.1 -5.9°
Sets 07:06:22 0° 180° (S) 3,829 6.0 -5.4°
